Vertical_Velocity
-1 -0 0 -0 1 1 0 -1 0 -3 -2 -3 -2 0 1 1 -1 -0 -1 -2 -1 -0 0 1 -1 -1 -1 -2 -2 -1 1 -1 0 0 1 0 0 -0 1 3 1 0 0 3
-0 -2 3 -1 1 -0 -0 0 -0 -0 -1 -2 -2 0 0 -2 -1 -1 -1 -2 -1 -1 0 -0 -0 -1 -2 -2 -1 -1 0 -0 -0 -0 -1 -1 -1 -1 -5 -6 -5 -6 -3 -1
-1 2 -1 -1 1 -0 0 0 -0 -1 3 -1 -1 2 -2 -3 -0 -1 -1 -2 -1 -0 -0 0 -2 -0 -1 -1 0 0 -0 -2 -2 -1 -1 -1 -2 0 1 1 1 5 3 -2
-2 4 -0 -0 -1 0 -3 4 1 1 0 -5 8 -1 5 -1 -2 0 -1 -1 0 0 -1 -1 -3 -2 -2 0 2 -1 -2 -2 -3 -3 0 -1 -1 1 -0 -4 -2 -3 -1 1
-4 1 -1 -1 1 -1 2 0 1 0 1 0 1 -5 -0 -3 0 1 1 1 0 -0 -1 -1 -2 -2 -3 -2 -2 -2 -3 -1 -2 -3 -4 -4 -0 -3 -1 0 -2 1 1 -1
-2 -2 -0 -1 -0 -0 1 -0 0 -1 -0 -2 3 -1 -8 8 -1 -2 1 -0 -0 0 -0 -0 -2 -2 -3 -1 0 -1 -1 1 -1 -1 -1 -4 -4 -3 -4 -1 -3 -2 -0 0
1 1 1 1 1 1 2 1 -2 -1 3 -2 2 -1 11 1 -2 -2 -0 0 -1 1 1 0 -3 -3 -1 -2 -2 -4 -4 1 -1 -2 -2 -2 -3 -3 -6 -5 -3 -5 -2 -0
-0 -1 2 3 1 1 0 1 1 0 0 -6 7 2 5 -1 -1 -2 -2 -1 0 -1 -0 -2 -3 -1 -3 -2 -3 -2 -1 1 -2 -3 -2 -3 -3 -5 -2 -1 -5 -3 -7 -5
2 -3 1 1 1 2 5 2 1 -2 1 -1 1 4 7 -0 0 -2 -2 -1 -0 0 -2 -1 -2 -2 -1 -3 -2 -0 -0 -1 -0 -1 -2 0 0 -3 -6 -4 -6 -6 -2 -4
3 -4 -1 1 1 2 1 2 1 -2 -1 -5 4 -3 -10 5 0 -6 -4 -3 -0 1 -3 -1 -1 -2 -0 -1 -1 -1 -2 -3 -2 -3 -3 -1 -3 -2 -5 -5 -1 -3 -4 -4
-0 -1 6 0 3 1 1 1 0 0 0 -7 -1 12 7 -6 -5 -7 -2 1 0 -3 4 1 0 -0 -2 -1 -2 -1 -1 -1 -1 -5 -3 -4 -2 -3 -3 -4 -2 -3 -5 -3
-0 0 -0 3 1 1 1 1 1 -2 -0 -1 5 1 9 4 1 -3 -1 -3 -5 -6 -1 -3 0 1 1 -1 -3 -2 -1 -2 -4 -5 -2 -1 -2 -3 -3 -1 -1 -1 -4 -1
0 2 -0 3 -1 -0 3 2 -1 -2 -1 17 -7 20 -7 3 -7 -12 13 1 -3 -2 -5 -2 1 0 -1 -2 -3 -4 -2 -1 -3 -4 -2 -1 -2 -3 -3 -2 -2 -2 -1 -0
0 3 1 3 -4 -3 1 2 3 -1 -2 -5 13 -8 4 -4 -19 -13 -8 -5 3 5 0 -0 -0 -1 -2 -2 -3 -2 1 -1 -3 -2 -2 -2 -1 -2 -2 -2 -4 -5 1 1
-0 3 1 0 -0 1 -1 1 -4 -0 10 -17 14 -5 7 -2 2 -2 0 5 5 -0 -2 -3 -2 -0 1 -1 -2 -1 1 -3 -4 -3 -2 -1 -2 -2 -3 -4 -2 -2 -0 -0
-0 -3 -1 9 3 -3 -5 1 -2 2 8 -6 -1 3 -16 7 1 1 -2 -4 -1 -2 -2 -1 -3 -3 -1 -1 -2 -2 -2 -4 -2 0 -3 -3 -3 -4 -3 1 -1 -0 -0 0
1 -2 -2 7 2 -3 4 3 2 -1 7 1 4 3 -4 0 1 4 -3 1 2 -3 -1 0 0 1 -0 -3 -4 0 -0 -1 -0 -3 -2 -5 -5 -4 -0 -0 -0 1 -2 -4
-1 -3 -4 -2 2 -1 4 -8 -7 -2 -3 -1 -1 1 2 -1 5 1 -8 8 -3 3 2 2 -1 0 -1 -1 -1 -1 -3 -4 -4 -1 -2 -1 -3 -1 -0 -0 -0 -2 -2 -2
-2 -3 -10 -6 -3 1 8 7 -1 -4 16 -4 1 4 1 -1 -2 8 3 -3 -1 -0 1 -2 -3 -4 -3 -4 -4 -3 -3 -3 -3 -2 1 -1 -1 -2 -3 -2 -0 4 1 0
1 -2 0 -9 -6 -11 2 1 -5 -3 -3 3 -1 -3 -4 4 -0 14 -11 -2 -2 -4 -4 -1 0 -2 -4 -3 -4 -3 0 -3 -1 1 -1 -1 -3 -5 -4 -3 -2 -1 -1 2
-3 -3 -0 -4 -9 9 -3 3 -7 -3 -7 -4 -3 2 -5 -6 -7 0 -3 0 0 -1 2 0 -1 -1 -1 -2 -2 -1 -1 -2 0 -3 -3 -0 -0 -5 -3 -4 -6 -2 0 -0
-2 -8 -6 1 -3 -9 1 -3 -3 -6 6 -2 -5 -7 -6 -1 -0 -1 -0 -3 -1 2 2 -0 -3 0 1 -2 -3 -0 -4 -4 -0 -4 -2 -1 -4 1 -4 -2 -2 -2 1 2
-3 2 -1 -13 1 3 -9 6 7 3 -4 1 -1 -1 -7 -1 0 -2 -1 3 2 1 -2 -1 -3 -0 -2 -2 -5 -1 -3 -2 0 -0 1 -2 -3 -2 -5 1 -1 1 -0 -2
-1 5 -2 -20 30 5 0 -3 0 -3 -4 7 1 -4 -5 -7 -1 -1 1 1 -1 -2 -2 -1 -3 -1 -1 -2 -1 -3 -4 -1 -1 1 2 -4 -1 -1 -4 -4 -1 1 0 -1
8 -13 -8 9 4 -9 13 -8 -11 -5 1 -4 -5 -8 2 -3 1 -0 1 1 2 -0 -2 -1 -1 -0 -2 -1 1 -2 -3 -3 2 2 -2 -1 -5 -3 2 -3 3 2 -1 -1
2 -8 -2 -3 -2 -17 13 10 9 -2 3 2 -6 1 -8 6 -0 -2 -1 -1 -2 -0 0 0 1 -1 -1 -0 -1 -2 -2 -1 2 -2 1 -5 -2 -1 1 1 2 -1 1 1
Height
5860 5862 5863 5864 5865 5865 5865 5864 5863 5861 5862 5861 5860 5861 5861 5859 5858 5857 5856 5854 5852 5851 5849 5847 5845 5844 5842 5839 5837 5834 5831 5827 5824 5820 5817 5813 5810 5806 5802 5798 5793 5790 5786 5782
5858 5858 5860 5860 5861 5860 5860 5860 5859 5858 5858 5857 5856 5856 5856 5854 5853 5851 5850 5849 5847 5845 5843 5841 5839 5837 5834 5831 5828 5824 5821 5817 5812 5808 5804 5800 5795 5790 5785 5781 5776 5771 5767 5763
5853 5856 5856 5856 5856 5856 5856 5855 5854 5854 5854 5852 5852 5852 5850 5849 5848 5846 5845 5843 5841 5839 5837 5834 5832 5829 5826 5822 5818 5814 5809 5804 5800 5796 5791 5786 5781 5776 5771 5766 5761 5756 5750 5744
5849 5852 5851 5851 5851 5852 5850 5851 5850 5850 5849 5848 5848 5846 5846 5844 5842 5840 5839 5837 5835 5832 5829 5827 5823 5820 5816 5812 5808 5803 5797 5792 5787 5781 5776 5771 5766 5760 5755 5749 5743 5737 5731 5726
5846 5847 5847 5846 5847 5846 5847 5846 5846 5845 5844 5843 5842 5841 5839 5839 5837 5834 5832 5830 5827 5824 5821 5818 5814 5809 5805 5800 5795 5790 5784 5778 5771 5765 5759 5753 5748 5741 5736 5729 5723 5717 5711 5705
5841 5841 5842 5842 5842 5842 5842 5842 5841 5840 5839 5838 5837 5836 5832 5832 5830 5827 5824 5822 5819 5816 5812 5808 5803 5797 5792 5787 5782 5775 5769 5763 5755 5748 5741 5735 5728 5722 5716 5709 5702 5696 5689 5683
5837 5837 5837 5837 5837 5837 5837 5836 5835 5834 5833 5832 5830 5829 5828 5823 5821 5818 5816 5813 5810 5806 5802 5796 5790 5785 5779 5773 5766 5759 5752 5745 5737 5731 5724 5716 5709 5702 5695 5687 5680 5672 5666 5658
5832 5833 5833 5833 5833 5832 5831 5831 5830 5827 5826 5825 5822 5822 5819 5816 5813 5809 5806 5803 5799 5795 5789 5783 5777 5771 5764 5758 5751 5744 5737 5730 5722 5714 5706 5698 5689 5681 5673 5664 5656 5649 5641 5634
5828 5827 5828 5828 5827 5827 5826 5825 5824 5821 5819 5818 5816 5813 5812 5809 5805 5799 5795 5791 5787 5782 5775 5768 5763 5757 5750 5743 5735 5729 5721 5714 5705 5697 5687 5679 5669 5658 5650 5642 5633 5625 5618 5610
5824 5823 5823 5822 5822 5821 5820 5819 5818 5815 5813 5810 5810 5805 5799 5798 5792 5787 5783 5779 5774 5769 5761 5755 5748 5742 5735 5728 5720 5712 5704 5695 5686 5676 5667 5658 5647 5637 5628 5619 5611 5602 5595 5586
5818 5818 5820 5817 5817 5815 5815 5813 5811 5809 5806 5802 5800 5800 5792 5788 5780 5774 5771 5766 5761 5754 5748 5741 5734 5727 5720 5711 5702 5693 5684 5675 5667 5657 5648 5638 5628 5617 5607 5597 5589 5579 5570 5561
5813 5812 5811 5812 5810 5809 5808 5806 5803 5800 5798 5793 5791 5788 5785 5777 5770 5764 5758 5751 5745 5738 5732 5725 5718 5710 5702 5694 5685 5676 5667 5658 5649 5640 5630 5619 5608 5598 5588 5578 5568 5556 5546 5537
5807 5807 5805 5805 5804 5802 5801 5799 5796 5791 5787 5788 5779 5780 5771 5764 5756 5749 5749 5742 5733 5727 5719 5711 5704 5695 5687 5677 5669 5660 5651 5641 5632 5621 5611 5600 5588 5578 5568 5557 5545 5535 5523 5514
5801 5800 5799 5798 5794 5793 5791 5789 5786 5781 5778 5774 5771 5764 5762 5752 5738 5733 5729 5725 5722 5715 5705 5696 5688 5680 5672 5663 5654 5644 5635 5624 5614 5603 5592 5581 5570 5558 5547 5535 5523 5511 5500 5491
5793 5793 5791 5789 5786 5783 5781 5779 5774 5771 5770 5761 5762 5751 5749 5740 5732 5726 5719 5713 5706 5697 5689 5682 5675 5666 5658 5648 5638 5629 5618 5607 5596 5586 5575 5564 5552 5538 5525 5512 5499 5487 5477 5467
5785 5782 5781 5780 5777 5773 5771 5770 5765 5762 5757 5750 5743 5740 5729 5728 5721 5716 5709 5702 5693 5685 5676 5669 5661 5652 5643 5633 5624 5614 5604 5593 5582 5571 5559 5546 5532 5519 5504 5490 5478 5465 5453 5442
5776 5772 5769 5769 5766 5762 5762 5758 5755 5749 5743 5737 5732 5726 5718 5713 5708 5703 5695 5690 5682 5672 5665 5657 5648 5639 5630 5620 5610 5601 5590 5578 5567 5555 5542 5527 5513 5499 5485 5471 5456 5442 5429 5418
5765 5762 5758 5757 5754 5751 5747 5743 5739 5734 5730 5724 5719 5715 5709 5703 5698 5690 5683 5679 5669 5661 5653 5644 5634 5625 5615 5606 5596 5586 5575 5564 5553 5540 5525 5510 5494 5481 5467 5451 5435 5422 5410 5400
5755 5751 5748 5745 5742 5739 5738 5733 5726 5721 5721 5713 5709 5705 5699 5692 5686 5678 5673 5664 5656 5647 5638 5629 5619 5610 5601 5591 5582 5572 5561 5550 5538 5524 5510 5493 5478 5465 5450 5433 5418 5407 5398 5390
5745 5742 5739 5734 5729 5725 5723 5718 5713 5708 5704 5701 5695 5691 5686 5680 5674 5666 5657 5650 5641 5633 5624 5614 5605 5595 5586 5577 5568 5559 5548 5536 5523 5509 5495 5480 5467 5454 5438 5421 5408 5398 5388 5379
5736 5733 5730 5725 5718 5719 5713 5708 5703 5698 5695 5687 5683 5678 5672 5665 5658 5650 5641 5634 5626 5617 5608 5599 5591 5582 5572 5564 5554 5545 5533 5522 5509 5495 5482 5470 5459 5447 5434 5420 5405 5393 5383 5374
5726 5723 5721 5718 5712 5707 5702 5696 5691 5686 5682 5673 5667 5660 5655 5650 5642 5635 5627 5618 5610 5603 5595 5587 5579 5570 5560 5551 5542 5532 5520 5509 5496 5484 5473 5462 5452 5442 5432 5420 5408 5395 5385 5376
5718 5717 5713 5710 5702 5698 5690 5686 5680 5673 5668 5662 5653 5647 5639 5633 5625 5617 5609 5601 5594 5588 5581 5573 5566 5558 5548 5539 5529 5521 5509 5498 5486 5475 5464 5455 5447 5438 5430 5419 5409 5399 5390 5381
5707 5706 5702 5695 5696 5690 5681 5674 5666 5659 5653 5648 5640 5632 5624 5617 5608 5600 5592 5586 5581 5575 5568 5561 5554 5547 5538 5530 5520 5509 5498 5488 5478 5467 5458 5451 5443 5436 5428 5419 5409 5400 5391 5383
5698 5692 5687 5685 5680 5676 5668 5657 5651 5646 5639 5630 5623 5616 5609 5598 5590 5583 5578 5574 5569 5564 5558 5550 5543 5536 5528 5520 5510 5500 5489 5480 5471 5462 5454 5447 5440 5433 5428 5419 5410 5402 5393 5386
5683 5678 5675 5671 5664 5659 5658 5648 5636 5632 5626 5616 5607 5600 5590 5582 5573 5569 5565 5562 5558 5553 5547 5540 5533 5526 5519 5510 5501 5491 5482 5473 5465 5458 5451 5445 5438 5432 5426 5420 5412 5405 5398 5391